[[{"header":{"parameterUnit":"m.s-1","parameterCategory":1,"la1":30.2991,"la2":30.254,"lo1":-89.0895,"lo2":-89.0444,"dy":0.0017,"dx":0.0017,"nx":28,"ny":28,"refTime":"2023-08-31T09:00:00:Z","depth":0,"parameterNumber":2,"parameterNumberName":"U-component_of_WINDS"},"data":[0,0,0,0,0,0,0,0,0,0,0,0,0,0,0,0,0,0,0,0,0,0,0,0,0,0,0,0,0,0,0,0,0,0,0,0,0,0,0,0,0,0,0,0,0,0,0,0,0,0,0,0,0,0,0,0,0,0,-0.6436,-0.6436,0,-0.6486,-0.6486,-0.6487,-0.6471,-0.6469,-0.6468,-0.6467,-0.6521,-0.6523,-0.6526,0,0,0,0,0,0,0,0,0,0,0,0,0,-0.6327,-0.633,-0.6436,-0.6436,-0.6437,-0.6486,-0.6486,-0.6487,-0.6471,-0.6469,-0.6468,-0.6467,-0.652,-0.6523,-0.6526,0,0,0,0,0,0,0,0,0,0,0,0,0,-0.6376,-0.633,-0.6435,-0.6435,-0.6435,-0.6485,-0.6486,-0.6487,-0.6471,-0.6469,-0.6468,-0.6466,-0.6519,-0.6523,-0.6526,-0.6581,0,0,-0.6537,-0.6539,0,0,0,0,0,0,0,0,-0.6373,-0.638,-0.6434,-0.6435,-0.6435,-0.647,-0.6468,-0.6519,-0.6471,-0.6457,-0.6467,-0.6465,-0.6505,-0.651,-0.6523,-0.6584,-0.6586,-0.6538,-0.654,-0.6541,-0.6542,0,0,0,0,0,0,0,-0.637,-0.6377,-0.6455,-0.6435,-0.6436,-0.6432,-0.6437,-0.6477,-0.649,-0.6459,-0.6457,-0.6463,-0.6505,-0.652,-0.6524,-0.6587,-0.6538,-0.6541,-0.6543,-0.6544,-0.6694,-0.6695,0,0,0,0,0,0,-0.6366,-0.6375,-0.6454,-0.6457,-0.6399,-0.6435,-0.6441,-0.6461,-0.6489,-0.6492,-0.6465,-0.6463,-0.6514,-0.652,-0.6526,-0.6591,-0.6541,-0.6545,-0.6547,-0.6692,-0.6694,-0.6696,0,0,0,0,0,0,-0.6363,-0.6373,-0.6452,-0.6416,-0.6425,-0.6439,-0.6461,-0.6462,-0.6477,-0.6494,-0.6497,-0.6477,-0.6513,-0.6521,-0.6567,-0.6593,-0.6546,-0.655,-0.669,-0.6692,-0.6695,-0.6723,0,0,0,0,0,0,-0.636,-0.6372,-0.6393,-0.6416,-0.6427,-0.6492,-0.6463,-0.6465,-0.6483,-0.648,-0.6506,-0.6509,-0.6512,-0.6562,-0.6571,-0.6597,-0.6553,-0.6687,-0.6691,-0.6694,-0.672,-0.6726,-0.6732,0,0,0,0,0,-0.6357,-0.64,-0.6394,-0.6404,-0.6454,-0.6493,-0.65,-0.6502,-0.6485,-0.6506,-0.6517,-0.6508,-0.6589,-0.6567,-0.6577,-0.6604,-0.6686,-0.669,-0.6694,-0.6717,-0.6725,-0.6732,0,0,0,0,0,0,-0.638,-0.6403,-0.6397,-0.6449,-0.6469,-0.649,-0.6517,-0.6511,-0.6537,-0.6534,-0.6537,-0.6543,-0.659,-0.6602,-0.6577,-0.6659,-0.6635,-0.6641,-0.6649,-0.6657,-0.6662,-0.6658,-0.6556,0,0,0,0,0,-0.6392,-0.6421,-0.644,-0.6484,-0.6494,-0.6504,-0.6521,-0.6521,-0.6543,-0.6552,-0.6566,-0.6588,-0.6618,-0.6638,-0.6667,-0.6721,-0.6726,-0.6745,-0.6751,-0.6756,-0.6761,-0.679,-0.6798,-0.6709,-0.6709,-0.6709,0,0,-0.6415,-0.6431,-0.645,-0.6489,-0.6504,-0.6536,-0.6511,-0.6546,-0.6569,-0.6557,-0.6601,-0.6613,-0.6637,-0.6687,-0.671,-0.6699,-0.6787,-0.6761,-0.6765,-0.6768,-0.6795,-0.6803,-0.6811,-0.6712,-0.6711,-0.6711,0,0,-0.6474,-0.6489,-0.6527,-0.6543,-0.6566,-0.6573,-0.6582,-0.6604,-0.6611,-0.6655,-0.6646,-0.6674,-0.6726,-0.6743,-0.6759,-0.6823,-0.6815,-0.6832,-0.6864,-0.6891,-0.6898,-0.6905,-0.6927,-0.6934,-0.6838,-0.6838,-0.6838,0,-0.65,-0.6546,-0.6547,-0.6582,-0.6599,-0.6588,-0.6626,-0.6642,-0.6675,-0.6687,-0.6673,-0.6737,-0.6753,-0.6807,-0.6822,-0.6836,-0.6846,-0.6829,-0.6897,-0.6903,-0.6909,-0.693,-0.6939,-0.6839,-0.6839,-0.6839,-0.6839,0,-0.6577,-0.6609,-0.6637,-0.6667,-0.6687,-0.6723,-0.673,-0.675,-0.6748,-0.6756,-0.68,-0.6819,-0.685,-0.6863,-0.6862,-0.6916,-0.6908,-0.6896,-0.6872,-0.692,-0.6939,-0.6947,-0.6842,-0.6841,-0.6841,-0.684,0,0,-0.6653,-0.6682,-0.6692,-0.6705,-0.673,-0.6755,-0.679,-0.682,-0.6837,-0.686,-0.689,-0.6933,-0.6922,-0.6939,-0.694,-0.6965,-0.7013,-0.6949,-0.695,-0.696,-0.7072,-0.7081,-0.709,-0.7008,-0.7009,-0.7011,-0.707,0,-0.6713,-0.6774,-0.6776,-0.6832,-0.6861,-0.6852,-0.6882,-0.6901,-0.6909,-0.6935,-0.6944,-0.6974,-0.6957,-0.6968,-0.6991,-0.7002,-0.7035,-0.6998,-0.7035,-0.7037,-0.7029,-0.7101,-0.711,-0.7165,-0.7078,-0.7079,-0.708,0,-0.6791,-0.6815,-0.6874,-0.6893,-0.6906,-0.6933,-0.696,-0.6985,-0.7006,-0.701,-0.7029,-0.7026,-0.7062,-0.7037,-0.7087,-0.7061,-0.7076,-0.7084,-0.7086,-0.7089,-0.7061,-0.7105,-0.7183,-0.7191,-0.7092,-0.7091,-0.7091,0,-0.6839,-0.6886,-0.6927,-0.6939,-0.6963,-0.6982,-0.6993,-0.7012,-0.703,-0.7054,-0.7065,-0.7093,-0.7109,-0.713,-0.7135,-0.7116,-0.7184,-0.716,-0.7188,-0.7188,-0.7203,-0.7202,-0.7283,-0.7214,-0.7214,-0.7214,-0.7213,0,-0.6906,-0.6942,-0.6949,-0.6974,-0.7014,-0.7015,-0.7055,-0.7065,-0.7082,-0.7109,-0.7103,-0.7128,-0.7133,-0.7159,-0.7163,-0.7203,-0.721,-0.7214,-0.7214,-0.7214,-0.7214,-0.7224,-0.722,-0.7216,-0.7215,-0.7215,-0.7214,0,-0.6967,-0.6972,-0.7016,-0.7035,-0.704,-0.7069,-0.7085,-0.7109,-0.7116,-0.715,-0.7158,-0.7169,-0.72,-0.7206,-0.7243,-0.7245,-0.7292,-0.729,-0.7285,-0.7285,-0.7312,-0.7309,-0.7403,-0.7415,-0.7338,-0.7339,-0.734,0,-0.7008,-0.7036,-0.7057,-0.7074,-0.7086,-0.7114,-0.7131,-0.7133,-0.7152,-0.7177,-0.7198,-0.7227,-0.7251,-0.7301,-0.7312,-0.734,-0.7337,-0.7368,-0.7341,-0.734,-0.7336,-0.7334,-0.7337,-0.7373,-0.7374,-0.7375,-0.7375,0,-0.7082,-0.7083,-0.7108,-0.7133,-0.7154,-0.7175,-0.7194,-0.7209,-0.7214,-0.7235,-0.7265,-0.7284,-0.7321,-0.735,-0.7378,-0.7389,-0.7383,-0.7383,-0.7391,-0.7391,-0.7387,-0.7388,-0.7298,-0.7381,-0.7381,-0.738,-0.738,-0.738,-0.7134,-0.7157,-0.7175,-0.7203,-0.7217,-0.7236,-0.7259,-0.7268,-0.7293,-0.7322,-0.7322,-0.7356,-0.7375,-0.7411,-0.7424,-0.745,-0.7441,-0.7453,-0.7455,-0.7458,-0.746,-0.7383,-0.7456,-0.7456,-0.7455,-0.7455,-0.7455,0,-0.7206,-0.7216,-0.7242,-0.7269,-0.729,-0.7282,-0.7303,-0.7322,-0.7351,-0.7369,-0.7392,-0.7427,-0.7455,-0.7468,-0.7496,-0.7514,-0.7512,-0.7521,-0.752,-0.7522,-0.7468,-0.7458,-0.7523,-0.7523,-0.7523,-0.7523,-0.7523,-0.7523,-0.7246,-0.7284,-0.7287,-0.7333,-0.7344,-0.7376,-0.7388,-0.7405,-0.7419,-0.7458,-0.7481,-0.7489,-0.7505,-0.7534,-0.7559,-0.7562,-0.7572,-0.7583,-0.7585,-0.7533,-0.7526,-0.752,-0.751,-0.7585,-0.7585,-0.7637,-0.7637,-0.7638]},{"header":{"parameterUnit":"m.s-1","parameterCategory":1,"la1":30.2991,"la2":30.254,"lo1":-89.0895,"lo2":-89.0444,"dy":0.0017,"dx":0.0017,"nx":28,"ny":28,"refTime":"2023-08-31T09:00:00:Z","depth":0,"parameterNumber":3,"parameterNumberName":"V-component_of_WINDS"},"data":[0,0,0,0,0,0,0,0,0,0,0,0,0,0,0,0,0,0,0,0,0,0,0,0,0,0,0,0,0,0,0,0,0,0,0,0,0,0,0,0,0,0,0,0,0,0,0,0,0,0,0,0,0,0,0,0,0,0,-3.1499,-3.1501,0,-3.1695,-3.1697,-3.1699,-3.1763,-3.1762,-3.1761,-3.176,-3.1952,-3.1957,-3.1963,0,0,0,0,0,0,0,0,0,0,0,0,0,-3.1174,-3.1179,-3.1499,-3.1501,-3.1504,-3.1694,-3.1697,-3.1699,-3.1763,-3.1762,-3.1761,-3.176,-3.195,-3.1957,-3.1964,0,0,0,0,0,0,0,0,0,0,0,0,0,-3.1336,-3.1181,-3.1498,-3.1558,-3.1566,-3.1694,-3.1697,-3.17,-3.1763,-3.1762,-3.176,-3.1759,-3.1947,-3.1956,-3.1965,-3.2044,0,0,-3.1992,-3.1995,0,0,0,0,0,0,0,0,-3.1327,-3.1348,-3.1547,-3.1555,-3.1563,-3.1703,-3.1653,-3.1815,-3.1763,-3.1688,-3.176,-3.1759,-3.1869,-3.1884,-3.1924,-3.2053,-3.2061,-3.1992,-3.1998,-3.2001,-3.2004,0,0,0,0,0,0,0,-3.1316,-3.134,-3.1576,-3.155,-3.156,-3.1574,-3.1595,-3.1684,-3.1783,-3.1694,-3.1699,-3.1722,-3.1873,-3.1915,-3.1929,-3.2064,-3.1992,-3.2,-3.2005,-3.2009,-3.227,-3.2272,0,0,0,0,0,0,-3.1295,-3.133,-3.157,-3.1582,-3.144,-3.158,-3.1605,-3.1659,-3.1782,-3.18,-3.1723,-3.1724,-3.1901,-3.1918,-3.1936,-3.2038,-3.2001,-3.201,-3.2015,-3.2268,-3.227,-3.2272,0,0,0,0,0,0,-3.1288,-3.1316,-3.1562,-3.1458,-3.149,-3.1587,-3.1648,-3.1664,-3.1706,-3.1804,-3.1821,-3.1748,-3.19,-3.1923,-3.2018,-3.2045,-3.2014,-3.2022,-3.2267,-3.2269,-3.2271,-3.2241,0,0,0,0,0,0,-3.1278,-3.1313,-3.1345,-3.1458,-3.1495,-3.1642,-3.165,-3.1668,-3.1722,-3.1725,-3.1832,-3.1848,-3.1901,-3.2004,-3.2026,-3.2057,-3.2029,-3.2264,-3.2268,-3.2271,-3.224,-3.2242,-3.2244,0,0,0,0,0,-3.1267,-3.1327,-3.1347,-3.1375,-3.1538,-3.1644,-3.1665,-3.1727,-3.1724,-3.1756,-3.182,-3.1845,-3.2039,-3.2013,-3.2039,-3.2072,-3.2263,-3.2267,-3.227,-3.2239,-3.2242,-3.2244,0,0,0,0,0,0,-3.1211,-3.1343,-3.1366,-3.1465,-3.1543,-3.1654,-3.1697,-3.1728,-3.1806,-3.1806,-3.1877,-3.1901,-3.199,-3.2041,-3.201,-3.2156,-3.2152,-3.2161,-3.212,-3.2123,-3.2125,-3.211,-3.2036,0,0,0,0,0,-3.1211,-3.1288,-3.1398,-3.1475,-3.1513,-3.1599,-3.1647,-3.1689,-3.1771,-3.1803,-3.1874,-3.1951,-3.2029,-3.2079,-3.2157,-3.2249,-3.2272,-3.2284,-3.2286,-3.2287,-3.2294,-3.2347,-3.2353,-3.2284,-3.2284,-3.2284,0,0,-3.121,-3.1292,-3.1335,-3.1466,-3.1531,-3.1608,-3.1626,-3.1705,-3.1762,-3.1814,-3.1909,-3.1964,-3.2054,-3.2148,-3.2193,-3.2193,-3.2318,-3.2292,-3.2292,-3.2298,-3.2351,-3.2357,-3.2363,-3.2287,-3.2287,-3.2286,0,0,-3.1248,-3.1318,-3.1391,-3.1457,-3.1558,-3.1615,-3.1632,-3.174,-3.1779,-3.1876,-3.1917,-3.1985,-3.2118,-3.2182,-3.2231,-3.2297,-3.2322,-3.232,-3.233,-3.2381,-3.2386,-3.2391,-3.2414,-3.2421,-3.2326,-3.2326,-3.2326,0,-3.1234,-3.1353,-3.1423,-3.1502,-3.1558,-3.1613,-3.1686,-3.1746,-3.1865,-3.1901,-3.1901,-3.2072,-3.2137,-3.2246,-3.2263,-3.2301,-3.2322,-3.2307,-3.238,-3.2386,-3.2392,-3.2414,-3.2423,-3.2325,-3.2326,-3.2326,-3.2326,0,-3.133,-3.1413,-3.1459,-3.1577,-3.1638,-3.1713,-3.1792,-3.1846,-3.1883,-3.1939,-3.2037,-3.2118,-3.2213,-3.2243,-3.2278,-3.2358,-3.2355,-3.2367,-3.2363,-3.2396,-3.2418,-3.2428,-3.2324,-3.2324,-3.2325,-3.2325,0,0,-3.1335,-3.1495,-3.151,-3.1565,-3.1681,-3.1745,-3.1823,-3.192,-3.1964,-3.2045,-3.2111,-3.2224,-3.2237,-3.2293,-3.2336,-3.2381,-3.2428,-3.2388,-3.2391,-3.2391,-3.2521,-3.251,-3.2519,-3.2447,-3.2449,-3.245,-3.2513,0,-3.1388,-3.1532,-3.1599,-3.1712,-3.1789,-3.1844,-3.1912,-3.1989,-3.2045,-3.2116,-3.2176,-3.2256,-3.2267,-3.2301,-3.2348,-3.2412,-3.2455,-3.2409,-3.2506,-3.2509,-3.2481,-3.2531,-3.252,-3.2575,-3.2522,-3.2524,-3.2525,0,-3.1467,-3.1553,-3.1675,-3.1785,-3.1819,-3.1879,-3.1974,-3.2043,-3.2132,-3.2169,-3.2234,-3.2276,-3.2358,-3.2351,-3.2465,-3.2432,-3.2477,-3.2514,-3.2518,-3.2528,-3.2517,-3.2541,-3.2594,-3.2602,-3.2539,-3.2538,-3.2537,0,-3.1459,-3.1604,-3.1696,-3.1741,-3.1871,-3.1912,-3.1968,-3.2056,-3.2111,-3.2193,-3.223,-3.2319,-3.2368,-3.2435,-3.25,-3.2489,-3.2607,-3.2605,-3.2639,-3.2637,-3.2659,-3.2656,-3.2719,-3.269,-3.269,-3.2689,-3.2689,0,-3.1509,-3.1581,-3.1694,-3.1751,-3.1833,-3.1909,-3.1988,-3.2047,-3.2126,-3.2194,-3.2246,-3.2308,-3.2391,-3.2463,-3.2514,-3.26,-3.2621,-3.2652,-3.2665,-3.2647,-3.2643,-3.2675,-3.2673,-3.2692,-3.2691,-3.2691,-3.269,0,-3.1512,-3.1591,-3.1695,-3.1812,-3.1842,-3.1898,-3.1996,-3.2053,-3.2112,-3.2197,-3.2221,-3.2314,-3.2401,-3.2474,-3.2587,-3.2622,-3.2711,-3.2726,-3.2682,-3.2688,-3.2717,-3.2713,-3.2801,-3.2816,-3.2778,-3.2778,-3.2778,0,-3.1538,-3.1596,-3.172,-3.1771,-3.1827,-3.1908,-3.1965,-3.2042,-3.2099,-3.2207,-3.2249,-3.2342,-3.242,-3.2557,-3.2632,-3.272,-3.2736,-3.2761,-3.2749,-3.273,-3.2736,-3.2731,-3.2737,-3.2761,-3.2761,-3.2761,-3.2761,0,-3.1577,-3.1614,-3.1696,-3.1793,-3.1861,-3.194,-3.2019,-3.2057,-3.2148,-3.221,-3.2302,-3.2363,-3.2482,-3.2572,-3.2668,-3.2723,-3.2757,-3.2765,-3.2778,-3.2759,-3.2731,-3.2746,-3.2683,-3.2762,-3.2762,-3.2762,-3.2762,-3.2762,-3.1592,-3.1646,-3.1743,-3.1833,-3.1903,-3.1977,-3.2036,-3.2105,-3.2184,-3.2289,-3.2329,-3.2423,-3.2512,-3.2645,-3.2701,-3.2774,-3.2778,-3.2795,-3.28,-3.2803,-3.28,-3.2721,-3.2792,-3.2792,-3.2792,-3.2792,-3.2792,0,-3.1633,-3.1699,-3.1781,-3.1894,-3.1964,-3.1995,-3.2085,-3.2142,-3.2225,-3.2307,-3.2384,-3.249,-3.2579,-3.2663,-3.2755,-3.2798,-3.2815,-3.2819,-3.2816,-3.2828,-3.2791,-3.2772,-3.2803,-3.2803,-3.2803,-3.2803,-3.2803,-3.2803,-3.1662,-3.1756,-3.1805,-3.1934,-3.1999,-3.2094,-3.2143,-3.2211,-3.2277,-3.2395,-3.247,-3.2526,-3.2608,-3.2708,-3.279,-3.2812,-3.2843,-3.2842,-3.2868,-3.2832,-3.283,-3.2828,-3.281,-3.2849,-3.2849,-3.2899,-3.2899,-3.2899]}]]